Weather Roundup
Issued by NWS Corpus Christi, TX

Home | Current Version | Previous Version | Text Only | Print | Product List | Glossary On
Versions: 1 2 3 4 5 6 7 8 9 10 11 12 13 14 15 16 17 18 19 20 21 22 23 24 25 26 27 28 29 30 31 32 33 34 35 36 37 38 39 40 41 42 43 44 45 46 47 48 49 50
000
ASUS44 KCRP 272310
HRRCRP

SOUTH TEXAS REGIONAL WEATHER ROUNDUP
NATIONAL WEATHER SERVICE CORPUS CHRISTI TX
500 PM CST FRI FEB 27 2015


TXZ229>244-280000-
...CORPUS CHRISTI AREA OBSERVATIONS...

CITY           SKY/WX    TMP DP  RH WIND       PRES   REMARKS
CORPUS CHRISTI LGT RAIN  51  45  79 NE20G29   30.18S FOG
NAS CORPUS CHR LGT RAIN  51  48  89 NE23      30.18S FOG
ROCKPORT       CLOUDY    50  42  74 NE21G30   30.20F
KINGSVILLE NAS DRIZZLE   52  48  86 NE14      30.19S FOG
ALICE          LGT RAIN  50  46  86 NE10      30.20R FOG
FALFURRIAS     CLOUDY    51  47  86 NE8       30.18S
$$

...VICTORIA AREA OBSERVATIONS...

CITY           SKY/WX    TMP DP  RH WIND       PRES   REMARKS
VICTORIA       CLOUDY    46  38  73 NE18      30.26S
BEEVILLE       CLOUDY    47  41  78 NE10G17   30.21S
PLEASANTON     FLURRIES  38  30  71 N8        30.26S
SAN ANTONIO    CLOUDY    34  30  85 NE13      30.26S WCI  25
$$

...LAREDO AREA OBSERVATIONS...

CITY           SKY/WX    TMP DP  RH WIND       PRES   REMARKS
LAREDO         CLOUDY    38  36  92 N10       30.24F FOG     WCI  31
COTULLA        CLOUDY    38  32  79 NE7       30.25S
DEL RIO        CLOUDY    38  33  82 E8        30.21F
MCALLEN        CLOUDY    62  50  64 N10       30.14S
HEBBRONVILLE   CLOUDY   N/A N/A N/A N8        30.19S HAZE
$$

...OTHER TEXAS OBSERVATIONS...

CITY           SKY/WX    TMP DP  RH WIND       PRES   REMARKS
BROWNSVILLE    PTSUNNY   63  55  75 NE7       30.12S
HOUSTON        CLOUDY    46  33  60 NE3       30.33F
COL. STATION   CLOUDY    40  26  57 NE14      30.32S WCI  32
AUSTIN         CLOUDY    35  28  75 N14       30.31S WCI  26
WACO           FRZ RAIN  29  26  89 N13       30.38S FOG     WCI  19
FORT WORTH     LGT SNOW  26  22  84 NE14      30.42S WCI  14
WICHITA FALLS  MIX PCPN  20  14  77 NE13      30.43F WCI   7
LUBBOCK        FLURRIES  16  11  80 E13       30.19F WCI   2
EL PASO        MOSUNNY   46  23  40 E9        29.90F
$$

...MARINE OBSERVATIONS...

STATION/POSITION TIME  SKY/WX   TEMP    WIND        PRES    VSBY  WAVE   SWELL
                                AIR SEA DIR/SP/G                  HT/PER HT/PER
                 (UTC)          (F)     (DEG/KT/KT) (MB)    (MI)  (FT/S) (FT/S)
PORT ARANSAS     2300            51 56   40/ 26/ 30 1022.1F
BUOY 90 E PORT A 2300            58 66   60/ 19/ 23 1022.9R         6/ 7
BUOY 45 SE BAFFI 2300            64 69   90/ 17/ 21 1019.8S         7/ 8   2/12
BUOY 200 E PT IS 2300            67 70   70/ 14/ 17 1019.4R         7/ 8   5/ 8
BUOY 15 E GALVES 2300            45 56   40/ 17/ 19 1025.9R         3/ 5
$$


USA.gov is the U.S. government's official web portal to all federal, state and local government web resources and services.